Weather observations for the past three days for
Wiley Post-Will Rogers Memorial Airport
Imperial (Metric)
Date Time (akdt) Wind (mph) Vis. (mi.) Weather Sky Cond. Temperature (ºF) Relative Humidity Wind Chill (°F) Heat Index (°F) Pressure Precipitation (in)
Air Dwpt 6 hour altimeter (in) sea level (mb) 1 hr 3 hr 6 hr
Max. Min.
15 11:53 N 15 10.00 Light Rain OVC005 35.6 30.2 81% 27 29.63 0.0
15 10:53 NE 15 8.00 Light Rain OVC005 35.6 32 87% 27 29.62 0.0
15 09:53 NE 17 7.00 Light Rain OVC006 35.6 30.2 81% 26 29.62 0.0
15 08:53 NE 16 7.00 Light Rain OVC006 35.6 30.2 81% 27 29.61 0.0
15 07:53 NE 17 9.00 Light Rain OVC005 35.6 30.2 81% 26 29.61 0.0
15 06:53 NE 18 6.00 Light Rain Fog/Mist OVC006 35.6 30.2 81% 26 29.61 0.0
15 05:53 NE 20 10.00 Light Rain OVC005 35.6 30.2 81% 26 29.61 0.0
14 21:53 NE 21 G 32 8.00 Light Rain and Breezy SCT060 OVC080 35.6 32 87% 25 29.61 0.0
14 20:53 NE 22 G 31 10.00 Light Rain and Breezy SCT060 OVC075 37.4 33.8 87% 27 29.61 0.0
14 19:53 NE 25 G 31 10.00 Light Rain and Breezy BKN042 BKN050 OVC070 37.4 33.8 87% 27 29.61 0.0
14 18:53 NE 21 G 31 10.00 Light Rain and Breezy SCT070 OVC080 37.4 33.8 87% 28 29.6 0.0
14 17:53 NE 25 G 33 10.00 Overcast and Breezy OVC080 37.4 33.8 87% 27 29.59 0.0
14 16:53 NE 29 G 35 10.00 Overcast and Windy SCT060 OVC080 37.4 33.8 87% 26 29.59 0.0
14 15:53 NE 24 G 32 8.00 Light Rain and Breezy FEW046 OVC080 37.4 33.8 87% 27 29.59 0.0
14 14:53 NE 25 10.00 Overcast and Breezy OVC035 39.2 33.8 81% 29 29.59 0.0
14 13:53 NE 26 G 33 10.00 Overcast and Windy OVC037 39.2 32 75% 29 29.59 0.0
14 12:53 NE 25 G 35 10.00 Mostly Cloudy and Breezy BKN090 39.2 32 75% 29 29.58 0.0
14 11:53 NE 29 G 33 10.00 Fair and Windy CLR 39.2 33.8 81% 28 29.57 0.0
14 10:53 NE 25 G 33 10.00 Overcast and Breezy OVC024 41 33.8 76% 31 29.57 0.0
14 09:53 NE 23 10.00 Overcast and Breezy OVC016 39.2 33.8 81% 29 29.56 0.0
14 08:53 E 23 G 29 10.00 Overcast and Breezy OVC009 37.4 33.8 87% 27 29.57 0.0
14 07:53 NE 22 3.00 Fog/Mist and Breezy OVC007 37.4 33.8 87% 27 29.55 0.0
14 06:53 NE 20 1.75 Fog/Mist OVC003 35.6 33.8 93% 26 29.56 0.0
14 05:53 NE 18 1.00 Fog/Mist OVC003 35.6 32 87% 26 29.57 0.0
13 21:53 E 10 10.00 Overcast SCT008 OVC047 39.2 35.6 87% 33 29.58 0.0
13 20:53 E 14 10.00 Overcast SCT005 BKN065 OVC090 41 37.4 87% 34 29.58 0.0
13 19:53 NE 12 10.00 Overcast SCT005 OVC060 41 37.4 87% 35 29.57 0.0
13 18:53 NE 8 10.00 Overcast SCT005 OVC085 42.8 37.4 81% 39 29.57 0.0
13 17:53 Calm 5.00 Light Rain Fog/Mist FEW005 BKN065 OVC080 44.6 41 87% 29.57 0.0
13 16:53 SE 7 6.00 Light Rain Fog/Mist OVC050 42.8 39.2 87% 39 29.58 0.0
13 13:53 NE 8 9.00 Light Rain BKN004 BKN055 OVC080 39.2 35.6 87% 34 29.57 0.0
13 12:53 NE 12 10.00 Light Rain BKN004 BKN065 OVC080 39.2 35.6 87% 33 29.57 0.0
13 11:53 NE 7 10.00 Overcast OVC005 39.2 35.6 87% 35 29.58 0.0
13 10:53 E 7 10.00 Overcast OVC003 39.2 35.6 87% 35 29.6 0.0
13 09:53 NE 14 4.00 Fog/Mist OVC003 37.4 33.8 87% 30 29.58 0.0
13 08:53 NE 14 3.00 Fog/Mist OVC003 37.4 33.8 87% 30 29.59 0.0
13 07:53 NE 13 0.50 Fog VV002 37.4 33.8 87% 30 29.59 0.0
13 06:53 NE 13 10.00 Overcast OVC004 37.4 33.8 87% 30 29.6 0.0
13 05:53 NE 13 10.00 Overcast OVC004 37.4 32 81% 30 29.62 0.0
12 21:53 NE 14 10.00 A Few Clouds FEW100 39.2 33.8 81% 32 29.74 0.0
12 19:53 NE 14 10.00 Partly Cloudy SCT100 42.8 35.6 76% 36 29.76 0.0
12 18:53 NE 13 10.00 Overcast OVC090 42.8 35.6 76% 37 29.79 0.0
12 17:53 NE 14 10.00 Overcast OVC080 42.8 35.6 76% 36 29.8 0.0
12 16:53 NE 14 10.00 Overcast OVC090 44.6 35.6 71% 39 29.81 0.0
12 15:53 NE 16 10.00 Partly Cloudy SCT110 46.4 35.6 66% 40 29.82 0.0
12 14:53 NE 15 10.00 Partly Cloudy SCT110 46.4 35.6 66% 41 29.83 0.0
12 13:53 NE 16 10.00 Fair CLR 44.6 37.4 76% 38 29.84 0.0
12 12:53 E 16 10.00 Fair CLR 44.6 35.6 71% 38 29.85 0.0
Date Time (akdt) Wind (mph) Vis. (mi.) Weather Sky Cond. Air Dwpt Max. Min. Relative Humidity Wind Chill (°F) Heat Index (°F) altimeter (in) sea level (mb) 1 hr 3 hr 6 hr
6 hour
Temperature (ºF) Pressure Precipitation (in)